False Pass, AK

2:27 AM HST on January 24, 2018 (GMT -1000)
False Pass

Weather History for PAKF - February, 2014

Change the Weather History Date:

Tuesday, February 4, 2014

  Actual Average (PACD) Record (PACD)
Temperature  
Mean Temperature - -  
Max Temperature - 33 °F 46 °F (2014)
Min Temperature - 24 °F -9 °F (1947)
Moisture  
Dew Point -    
Average Humidity    
Maximum Humidity    
Minimum Humidity    
Precipitation  
Precipitation 0.55 in - - ()
Sea Level Pressure  
Sea Level Pressure 30.06 in    
Wind  
Wind Speed 8 mph (East)    
Max Wind Speed 15 mph    
Max Gust Speed 22 mph    
Visibility 5 miles    
Events Rain    
Averages and records for this station are not official NWS values.
T = Trace of Precipitation, MM = Missing Value Source: NWS Daily Summary

Daily Weather History Graph

Daily Weather History Graph

Search for Another Location

Airport or City:

Trip Planner

Search our weather history database for the weather conditions in past years. The results will help you decide how hot, cold, wet, or windy it might be!

Date:

Astronomy

Feb. 04, 2014 Rise Set
Actual Time 8:37 AM HST 5:38 PM HST
Civil Twilight 7:58 AM HST 6:17 PM HST
Nautical Twilight 7:15 AM HST 7:00 PM HST
Astronomical Twilight 6:33 AM HST 7:42 PM HST
Moon 10:21 AM HST (2/4) No Moon Set
Length of Visible Light 10h 18m
Length of Day
9h 00m
Waxing Crescent, 31% of the Moon is Illuminated
Feb 4
Waxing Crescent
Feb 6
First Quarter
Feb 14
Full
Feb 22
Last Quarter
Feb 28
New

Hourly Weather History & Observations

Time (HST) Temp. Dew Point Humidity Pressure Visibility Wind Dir Wind Speed Gust Speed Precip Events Conditions
12:01 AM - - N/A% 29.81 in 10.0 mi WNW 9.2 mph 18.4 mph 0.00 in Rain Light Rain
1:01 AM - - N/A% 29.81 in 10.0 mi WNW 12.7 mph 20.7 mph 0.04 in Rain Light Rain
2:01 AM - - N/A% 29.82 in 10.0 mi WNW 11.5 mph 17.3 mph 0.05 in Rain Light Rain
2:56 AM - - N/A% 29.82 in 10.0 mi West 4.6 mph - 0.04 in Rain Light Rain
3:01 AM - - N/A% 29.82 in 10.0 mi WNW 8.1 mph - 0.05 in Rain Light Rain
4:01 AM - - N/A% 29.82 in 5.0 mi West 4.6 mph - 0.02 in Rain Light Rain
5:01 AM - - N/A% 29.83 in 7.0 mi NW 4.6 mph - 0.05 in Rain Light Rain
5:45 AM - - N/A% 29.83 in 5.0 mi North 6.9 mph - 0.01 in Rain Light Rain
6:01 AM - - N/A% 29.84 in 4.0 mi NNW 4.6 mph - 0.02 in Rain Light Rain
6:14 AM - - N/A% 29.84 in 4.0 mi NW 3.5 mph - 0.00 in Rain Light Rain
6:38 AM - - N/A% 29.84 in 4.0 mi WSW 3.5 mph - 0.00 in   Overcast
7:01 AM - - N/A% 29.85 in 4.0 mi Calm Calm - 0.00 in   Overcast
7:08 AM - - N/A% 29.85 in 3.0 mi Calm Calm - 0.00 in   Overcast
7:43 AM - - N/A% 29.87 in 2.5 mi Calm Calm - 0.01 in Rain Light Rain
7:58 AM - - N/A% 29.88 in 3.0 mi WSW 3.5 mph - 0.02 in   Overcast
8:01 AM - - N/A% 29.87 in 3.0 mi WSW 3.5 mph - 0.02 in   Overcast
8:42 AM - - N/A% 29.89 in 2.5 mi North 3.5 mph - 0.02 in Rain Light Rain
8:54 AM - - N/A% 29.90 in 1.8 mi Calm Calm - 0.03 in Rain Light Rain
9:01 AM - - N/A% 29.90 in 1.8 mi Calm Calm - 0.04 in Rain Light Rain
9:16 AM - - N/A% 29.91 in 1.5 mi SW 4.6 mph - 0.02 in Rain Rain
9:30 AM - - N/A% 29.92 in 2.5 mi South 8.1 mph - 0.05 in Rain Light Rain
10:01 AM - - N/A% 29.93 in 4.0 mi NE 8.1 mph - 0.07 in Rain Light Rain
10:15 AM - - N/A% 29.94 in 4.0 mi ENE 11.5 mph 18.4 mph 0.08 in Rain Light Rain
10:52 AM - - N/A% 29.95 in 3.0 mi East 6.9 mph - 0.09 in Rain Light Rain
11:01 AM - - N/A% 29.96 in 1.8 mi SE 5.8 mph - 0.01 in Rain Light Rain
11:09 AM - - N/A% 29.96 in 4.0 mi ESE 9.2 mph - 0.01 in Rain Light Rain
11:39 AM - - N/A% 29.98 in 2.5 mi East 4.6 mph - 0.02 in   Overcast
11:50 AM - - N/A% 29.99 in 6.0 mi ESE 8.1 mph - 0.02 in   Overcast
12:01 PM - - N/A% 29.99 in 6.0 mi ESE 9.2 mph - 0.02 in   Haze
1:01 PM - - N/A% 30.02 in 6.0 mi Variable 6.9 mph - 0.00 in   Overcast
2:01 PM - - N/A% 30.05 in 6.0 mi ESE 9.2 mph - 0.01 in   Haze
2:11 PM - - N/A% 30.05 in 6.0 mi ESE 10.4 mph - N/A   Haze
3:01 PM - - N/A% 30.08 in 6.0 mi ESE 11.5 mph - 0.00 in   Overcast
4:01 PM - - N/A% 30.12 in 5.0 mi ESE 11.5 mph 18.4 mph 0.00 in   Overcast
4:33 PM - - N/A% 30.15 in 6.0 mi ESE 11.5 mph 19.6 mph 0.01 in Rain Light Rain
4:54 PM - - N/A% 30.16 in 2.5 mi ESE 15.0 mph 21.9 mph 0.01 in   Overcast
5:01 PM - - N/A% 30.16 in 2.5 mi SE 12.7 mph 21.9 mph 0.01 in Rain Light Rain
5:11 PM - - N/A% 30.16 in 4.0 mi SE 12.7 mph 18.4 mph 0.00 in Rain Light Rain
5:19 PM - - N/A% 30.16 in 5.0 mi SE 8.1 mph 16.1 mph 0.01 in Rain Light Rain
6:01 PM - - N/A% 30.19 in 9.0 mi ESE 11.5 mph 19.6 mph 0.02 in Rain Light Rain
6:54 PM - - N/A% 30.21 in 10.0 mi ESE 12.7 mph 20.7 mph 0.01 in Rain Light Rain
7:01 PM - - N/A% 30.22 in 10.0 mi ESE 15.0 mph 19.6 mph 0.01 in Rain Light Rain
8:01 PM - - N/A% 30.26 in 5.0 mi East 11.5 mph 16.1 mph 0.00 in   Haze
8:15 PM - - N/A% 30.27 in 4.0 mi East 11.5 mph 18.4 mph N/A   Haze
9:01 PM - - N/A% 30.31 in 3.0 mi East 11.5 mph 19.6 mph 0.00 in Rain Light Rain
9:40 PM - - N/A% 30.33 in 2.5 mi East 9.2 mph - 0.01 in   Overcast
9:53 PM - - N/A% 30.35 in 3.0 mi ENE 8.1 mph 17.3 mph 0.01 in   Overcast
10:01 PM - - N/A% 30.35 in 3.0 mi East 12.7 mph - 0.01 in   Overcast
10:22 PM - - N/A% 30.37 in 2.5 mi ENE 6.9 mph - 0.01 in   Overcast
10:33 PM - - N/A% 30.37 in 4.0 mi East 6.9 mph - 0.01 in   Overcast
10:50 PM - - N/A% 30.37 in 1.8 mi Calm Calm - 0.03 in   Overcast
11:01 PM - - N/A% 30.37 in 2.0 mi Variable 3.5 mph - 0.05 in   Overcast
11:08 PM - - N/A% 30.37 in 1.8 mi Calm Calm - 0.06 in Rain Light Rain
11:41 PM - - N/A% 30.38 in 2.0 mi ENE 11.5 mph - 0.11 in Rain Light Rain
11:57 PM - - N/A% 30.39 in 4.0 mi ENE 15.0 mph 19.6 mph 0.11 in Rain Light Rain
11:58 PM - - N/A% 30.39 in 5.0 mi East 15.0 mph - 0.11 in Rain Light Rain